Paris, TX

1:35 PM CDT on June 28, 2017 (GMT -0500)
Cox

Weather History for KPRX - October, 2012

Change the Weather History Date:

Thursday, October 25, 2012

  Actual Average Record
Temperature  
Mean Temperature 66 °F -  
Max Temperature 80 °F 71 °F 86 °F (2014)
Min Temperature 51 °F 53 °F 35 °F (2005)
Growing Degree Days 16 (Base 50)    
Moisture  
Dew Point 60 °F    
Average Humidity 81    
Maximum Humidity 100    
Minimum Humidity 61    
Precipitation  
Precipitation 0.03 in - - ()
Sea Level Pressure  
Sea Level Pressure 29.93 in    
Wind  
Wind Speed 14 mph (SW)    
Max Wind Speed 25 mph    
Max Gust Speed 34 mph    
Visibility 10 miles    
Events      
Averages and records for this station are not official NWS values.
T = Trace of Precipitation, MM = Missing Value Source: NWS Daily Summary

Daily Weather History Graph

Daily Weather History Graph

Search for Another Location

Airport or City:

Trip Planner

Search our weather history database for the weather conditions in past years. The results will help you decide how hot, cold, wet, or windy it might be!

Date:

Astronomy

Oct. 25, 2012 Rise Set
Actual Time 7:35 AM CDT 6:35 PM CDT
Civil Twilight 7:09 AM CDT 7:01 PM CDT
Nautical Twilight 6:40 AM CDT 7:30 PM CDT
Astronomical Twilight 6:11 AM CDT 7:59 PM CDT
Moon 4:13 PM CDT (10/25) 3:43 AM CDT (10/25)
Length of Visible Light 11h 51m
Length of Day
11h 00m
Waxing Gibbous, 84% of the Moon is Illuminated
Oct 25
Waxing Gibbous
Oct 29
Full
Nov 6
Last Quarter
Nov 13
New
Nov 20
First Quarter

Hourly Weather History & Observations

Time (CDT) Temp. Heat Index Dew Point Humidity Pressure Visibility Wind Dir Wind Speed Gust Speed Precip Events Conditions
12:15 AM 69.8 °F - 64.4 °F 83% 29.87 in 10.0 mi SSE 11.5 mph - N/A   Clear
12:35 AM 69.8 °F - 64.4 °F 83% 29.87 in 10.0 mi SSE 11.5 mph - N/A   Clear
12:55 AM 69.8 °F - 64.4 °F 83% 29.86 in 10.0 mi SSE 13.8 mph - N/A   Clear
1:35 AM 69.8 °F - 64.4 °F 83% 29.86 in 10.0 mi SSE 12.7 mph - N/A   Clear
1:55 AM 69.8 °F - 64.4 °F 83% 29.86 in 10.0 mi South 9.2 mph - N/A   Clear
2:35 AM 69.8 °F - 66.2 °F 88% 29.85 in 10.0 mi South 16.1 mph 21.9 mph N/A   Clear
2:55 AM 69.8 °F - 66.2 °F 88% 29.85 in 10.0 mi South 17.3 mph - N/A   Partly Cloudy
3:15 AM 71.6 °F - 66.2 °F 83% 29.85 in 10.0 mi South 15.0 mph 21.9 mph N/A   Clear
3:35 AM 69.8 °F - 66.2 °F 88% 29.85 in 10.0 mi South 15.0 mph - N/A   Scattered Clouds
3:55 AM 69.8 °F - 66.2 °F 88% 29.85 in 10.0 mi South 13.8 mph - N/A   Overcast
4:15 AM 69.8 °F - 66.2 °F 88% 29.86 in 10.0 mi South 13.8 mph 18.4 mph N/A   Overcast
4:35 AM 71.6 °F - 68.0 °F 88% 29.86 in 10.0 mi SSW 16.1 mph - N/A   Overcast
4:55 AM 71.6 °F - 68.0 °F 88% 29.86 in 10.0 mi South 13.8 mph 21.9 mph N/A   Overcast
5:15 AM 71.6 °F - 68.0 °F 88% 29.86 in 10.0 mi South 11.5 mph - N/A   Overcast
5:35 AM 71.6 °F - 68.0 °F 88% 29.87 in 10.0 mi SSW 10.4 mph - N/A   Overcast
5:55 AM 71.6 °F - 68.0 °F 88% 29.88 in 10.0 mi South 10.4 mph - N/A   Overcast
6:15 AM 71.6 °F - 68.0 °F 88% 29.88 in 10.0 mi South 10.4 mph - N/A   Overcast
6:55 AM 68.0 °F - 66.2 °F 94% 29.88 in 10.0 mi SSE 10.4 mph - N/A   Scattered Clouds
7:15 AM 66.2 °F - 64.4 °F 94% 29.89 in 10.0 mi SSE 9.2 mph - N/A   Clear
7:35 AM 66.2 °F - 66.2 °F 100% 29.89 in 10.0 mi SSE 9.2 mph - N/A   Mostly Cloudy
7:55 AM 66.2 °F - 64.4 °F 94% 29.90 in 10.0 mi SSE 9.2 mph - N/A   Mostly Cloudy
8:35 AM 66.2 °F - 66.2 °F 100% 29.91 in 10.0 mi SSE 8.1 mph - N/A   Scattered Clouds
8:55 AM 68.0 °F - 66.2 °F 94% 29.91 in 10.0 mi SSE 10.4 mph - N/A   Mostly Cloudy
9:15 AM 69.8 °F - 66.2 °F 88% 29.92 in 10.0 mi SSE 9.2 mph - N/A   Overcast
9:35 AM 71.6 °F - 66.2 °F 83% 29.92 in 10.0 mi South 10.4 mph - N/A   Overcast
9:55 AM 73.4 °F - 68.0 °F 83% 29.92 in 10.0 mi South 15.0 mph - N/A   Overcast
10:15 AM 75.2 °F - 69.8 °F 83% 29.92 in 10.0 mi SSW 17.3 mph 21.9 mph N/A   Overcast
10:35 AM 75.2 °F - 69.8 °F 83% 29.93 in 10.0 mi SSW 13.8 mph 19.6 mph N/A   Overcast
10:55 AM 75.2 °F - 69.8 °F 83% 29.93 in 8.0 mi SSW 11.5 mph 17.3 mph N/A   Overcast
11:15 AM 78.8 °F - 69.8 °F 74% 29.93 in 10.0 mi SSW 11.5 mph - N/A   Overcast
11:35 AM 77.0 °F - 66.2 °F 69% 29.93 in 10.0 mi SSW 19.6 mph 24.2 mph N/A   Overcast
11:55 AM 77.0 °F - 66.2 °F 69% 29.93 in 10.0 mi SW 10.4 mph 21.9 mph N/A   Overcast
12:15 PM 75.2 °F - 66.2 °F 73% 29.93 in 10.0 mi SW 10.4 mph - N/A   Overcast
12:35 PM 75.2 °F - 66.2 °F 73% 29.92 in 10.0 mi SW 11.5 mph - N/A   Overcast
12:55 PM 78.8 °F - 66.2 °F 65% 29.92 in 10.0 mi SW 15.0 mph 19.6 mph N/A   Overcast
1:15 PM 80.6 °F 83.2 °F 68.0 °F 65% 29.91 in 10.0 mi SSW 15.0 mph - N/A   Overcast
1:55 PM 78.8 °F - 66.2 °F 65% 29.89 in 10.0 mi SW 13.8 mph - N/A   Overcast
2:15 PM 78.8 °F - 64.4 °F 61% 29.89 in 10.0 mi SW 13.8 mph - N/A   Overcast
2:35 PM 78.8 °F - 64.4 °F 61% 29.88 in 10.0 mi SW 11.5 mph 17.3 mph N/A   Overcast
2:55 PM 78.8 °F - 64.4 °F 61% 29.88 in 10.0 mi SW 12.7 mph - N/A   Mostly Cloudy
3:15 PM 78.8 °F - 66.2 °F 65% 29.88 in 10.0 mi SW 13.8 mph - N/A   Mostly Cloudy
3:35 PM 68.0 °F - 57.2 °F 68% 29.91 in 10.0 mi NNW 25.3 mph 34.5 mph N/A   Overcast
3:55 PM 62.6 °F - 57.2 °F 82% 29.92 in 10.0 mi NNW 23.0 mph 26.5 mph N/A   Overcast
4:15 PM 60.8 °F - 55.4 °F 82% 29.93 in 10.0 mi NNW 23.0 mph 28.8 mph N/A   Overcast
4:35 PM 59.0 °F - 53.6 °F 82% 29.94 in 10.0 mi NNW 20.7 mph 27.6 mph N/A   Overcast
4:55 PM 57.2 °F - 53.6 °F 88% 29.94 in 10.0 mi North 20.7 mph 26.5 mph N/A   Overcast
5:15 PM 57.2 °F - 53.6 °F 88% 29.95 in 10.0 mi NNW 19.6 mph - N/A   Overcast
5:35 PM 55.4 °F - 51.8 °F 88% 29.97 in 10.0 mi NNW 17.3 mph 21.9 mph N/A   Overcast
5:55 PM 55.4 °F - 51.8 °F 88% 29.97 in 9.0 mi NNW 20.7 mph 24.2 mph 0.01 in   Overcast
6:15 PM 53.6 °F - 51.8 °F 94% 29.97 in 7.0 mi North 24.2 mph 32.2 mph 0.01 in   Overcast
6:35 PM 53.6 °F - 50.0 °F 88% 29.98 in 10.0 mi North 21.9 mph 26.5 mph 0.01 in   Overcast
6:55 PM 53.6 °F - 50.0 °F 88% 30.00 in 10.0 mi North 15.0 mph 23.0 mph 0.01 in   Overcast
7:15 PM 53.6 °F - 50.0 °F 88% 30.00 in 10.0 mi North 16.1 mph 21.9 mph N/A   Overcast
7:35 PM 53.6 °F - 48.2 °F 82% 30.01 in 10.0 mi North 18.4 mph - N/A   Overcast
7:55 PM 53.6 °F - 48.2 °F 82% 30.02 in 10.0 mi North 16.1 mph 20.7 mph N/A   Overcast
8:15 PM 53.6 °F - 48.2 °F 82% 30.03 in 10.0 mi NNW 12.7 mph 18.4 mph N/A   Overcast
8:35 PM 53.6 °F - 48.2 °F 82% 30.04 in 10.0 mi NNW 16.1 mph - N/A   Overcast
8:55 PM 53.6 °F - 46.4 °F 77% 30.03 in 10.0 mi North 21.9 mph - 0.01 in   Overcast
9:15 PM 53.6 °F - 46.4 °F 77% 30.04 in 10.0 mi NNW 18.4 mph 25.3 mph N/A   Overcast
9:35 PM 53.6 °F - 46.4 °F 77% 30.05 in 10.0 mi NNW 15.0 mph 24.2 mph N/A   Overcast
9:55 PM 53.6 °F - 46.4 °F 77% 30.05 in 10.0 mi North 17.3 mph 24.2 mph N/A   Overcast
10:15 PM 51.8 °F - 44.6 °F 76% 30.06 in 10.0 mi North 19.6 mph 28.8 mph N/A   Overcast
10:35 PM 51.8 °F - 42.8 °F 71% 30.06 in 10.0 mi North 19.6 mph 28.8 mph N/A   Overcast
10:55 PM 51.8 °F - 42.8 °F 71% 30.06 in 10.0 mi North 20.7 mph 29.9 mph N/A   Overcast
11:15 PM 51.8 °F - 42.8 °F 71% 30.07 in 10.0 mi North 18.4 mph 27.6 mph N/A   Overcast
11:35 PM 51.8 °F - 42.8 °F 71% 30.06 in 10.0 mi North 16.1 mph - N/A   Overcast
11:55 PM 51.8 °F - 42.8 °F 71% 30.06 in 10.0 mi North 19.6 mph 24.2 mph N/A   Overcast